TimeMST,TemperatureF,Dew PointF,Humidity,Sea Level PressureIn,VisibilityMPH,Wind Direction,Wind SpeedMPH,Gust SpeedMPH,PrecipitationIn,Events,Conditions,WindDirDegrees,DateUTC
12:52 AM,-18.9,-25.1,74,30.37,10.0,Calm,Calm,-,N/A,,Clear,0,2013-01-15 07:52:00
1:52 AM,-20.0,-24.0,82,30.37,10.0,WNW,3.5,-,N/A,,Clear,290,2013-01-15 08:52:00
2:52 AM,-25.6,-32.8,69,29.99,10.0,Calm,Calm,-,N/A,,Clear,0,2013-01-15 09:52:00
3:52 AM,-27.9,-33.0,77,30.46,10.0,WNW,4.6,-,N/A,,Clear,290,2013-01-15 10:52:00
4:52 AM,-27.9,-34.1,73,30.49,10.0,West,4.6,-,N/A,,Clear,270,2013-01-15 11:52:00
5:52 AM,-26.0,-29.9,81,30.54,10.0,WNW,5.8,-,N/A,,Clear,290,2013-01-15 12:52:00
6:02 AM,-23.8,-31.0,69,30.02,10.0,WNW,4.6,-,N/A,,Partly Cloudy,300,2013-01-15 13:02:00
6:34 AM,-31.0,-9999,N/A,30.03,8.0,WSW,4.6,-,N/A,,Mostly Cloudy,250,2013-01-15 13:34:00
6:52 AM,-29.0,-35.0,73,30.63,10.0,West,5.8,-,N/A,,Mostly Cloudy,270,2013-01-15 13:52:00
7:03 AM,-27.4,-34.6,69,30.03,8.0,West,4.6,-,N/A,,Scattered Clouds,260,2013-01-15 14:03:00
7:52 AM,-27.9,-33.0,77,30.63,10.0,Calm,Calm,-,N/A,,Clear,0,2013-01-15 14:52:00
8:07 AM,-23.8,-27.4,83,30.06,10.0,Calm,Calm,-,N/A,,Partly Cloudy,0,2013-01-15 15:07:00
8:52 AM,-18.0,-18.9,96,30.64,10.0,SW,4.6,-,N/A,,Clear,220,2013-01-15 15:52:00
9:52 AM,-5.1,-8.0,87,30.59,10.0,Calm,Calm,-,N/A,,Scattered Clouds,0,2013-01-15 16:52:00
10:52 AM,1.0,-9.0,63,30.57,10.0,Calm,Calm,-,N/A,,Scattered Clouds,0,2013-01-15 17:52:00
11:52 AM,3.9,-8.0,58,30.52,10.0,Calm,Calm,-,N/A,,Mostly Cloudy,0,2013-01-15 18:52:00
12:52 PM,6.1,-7.1,55,30.51,10.0,SE,4.6,-,N/A,,Scattered Clouds,140,2013-01-15 19:52:00
1:52 PM,7.0,-8.0,51,30.51,10.0,Calm,Calm,-,N/A,,Overcast,0,2013-01-15 20:52:00
2:52 PM,12.0,-7.1,42,30.54,10.0,Calm,Calm,-,N/A,,Overcast,0,2013-01-15 21:52:00
3:52 PM,12.0,-8.0,41,30.57,10.0,Calm,Calm,-,N/A,,Clear,0,2013-01-15 22:52:00
4:52 PM,6.1,-7.1,55,30.63,10.0,NW,5.8,-,N/A,,Clear,310,2013-01-15 23:52:00
5:52 PM,-0.0,-9.9,63,30.68,10.0,NW,5.8,-,N/A,,Clear,310,2013-01-16 00:52:00
6:52 PM,-6.0,-13.0,72,30.77,10.0,Calm,Calm,-,N/A,,Clear,0,2013-01-16 01:52:00
7:52 PM,-11.0,-17.0,75,30.81,10.0,Calm,Calm,-,N/A,,Clear,0,2013-01-16 02:52:00
8:52 PM,-13.0,-18.0,78,30.76,10.0,SSE,3.5,-,N/A,,Clear,160,2013-01-16 03:52:00
9:52 PM,-9.0,-14.1,79,30.66,10.0,Calm,Calm,-,N/A,,Overcast,0,2013-01-16 04:52:00
10:52 PM,-11.0,-16.1,78,30.66,10.0,Calm,Calm,-,N/A,,Clear,0,2013-01-16 05:52:00
11:52 PM,-14.1,-20.0,75,30.66,10.0,SW,6.9,-,N/A,,Clear,220,2013-01-16 06:52:00